Regional Weather Roundup
Issued by NWS Charleston, SC

Current Version | Previous Version | Graphics & Text | Print | Product List | Glossary On
Versions: 1 2 3 4 5 6 7 8 9 10 11 12 13 14 15 16 17 18 19 20 21 22 23 24 25 26 27 28 29 30 31 32 33 34 35 36 37 38 39 40 41 42 43 44 45 46 47 48 49 50
000
ASUS42 KCHS 251112
RWRCHS

REGIONAL WEATHER ROUNDUP
NATIONAL WEATHER SERVICE CHARLESTON SC
700 AM EDT SAT APR 25 2015

NOTE: "FAIR" INDICATES FEW OR NO CLOUDS BELOW 12,000 FEET WITH NO
SIGNIFICANT WEATHER AND/OR OBSTRUCTIONS TO VISIBILITY.

NOT ALL STATIONS ARE QUALITY CONTROLLED BY THE NATIONAL
WEATHER SERVICE. USE DATA WITH CAUTION...ESPECIALLY
DEWPOINT OBSERVATIONS.

SCZ027-030-031-034>040-042>050-251200-
...SOUTHEAST SOUTH CAROLINA...

CITY           SKY/WX    TMP DP  RH WIND       PRES   REMARKS
N CHARLESTON   CLOUDY    61  56  83 NE3       29.94F
WATERFRONT PRK   N/A     68 N/A N/A SE5         N/A
MOUNT PLEASANT FAIR      57  57 100 MISG      29.94F
PINOPOLIS      NOT AVBL
MONCKS CORNER  LGT RAIN  57  55  94 CALM      29.95F
SUMMERVILLE    DRIZZLE   55  55 100 CALM      29.95F
BEAUFORT MCAS  MOCLDY    66  59  78 CALM      29.93S
BEAUFORT ARPT  FAIR      64  61  88 CALM      29.93S
HILTON HEAD IS MOCLDY    70  63  78 S3        29.94R
WALTERBORO     CLOUDY    57  54  88 CALM      29.95S
ALLENDALE      FAIR      59  54  82 CALM      29.93R

...SOUTHERN MIDLANDS AND PEE DEE...

CITY           SKY/WX    TMP DP  RH WIND       PRES   REMARKS
GEORGETOWN     NOT AVBL
KINGSTREE      NOT AVBL
ORANGEBURG     CLOUDY    57  53  86 CALM      29.94F
BARNWELL       FAIR      57  54  88 NE3       29.95R
AIKEN          CLOUDY    55  50  82 CALM      29.96R
MANNING        RAIN      55  32  41 CALM      29.94F
COLUMBIA       LGT RAIN  57  51  80 CALM      29.93S
SUMTER         LGT RAIN  57  52  84 SW7       29.92S
FLORENCE       CLOUDY    57  50  77 S6        29.93S
MYRTLE BEACH   NOT AVBL
N MYRTLE BEACH CLOUDY    60  54  80 W5        29.94R

$$

GAZ063-065-086>088-099>101-113>116-118-119-134>141-150-251200-
...SOUTHEAST GEORGIA...

CITY           SKY/WX    TMP DP  RH WIND       PRES   REMARKS
SAVANNAH ARPT  CLOUDY    66  59  78 SE5       29.92R
HUNTER AAF     CLOUDY    68  62  82 SE3       29.90R
FORT STEWART   CLOUDY    60  56  88 CALM      29.89R
STATESBORO       N/A     61  56  82 CALM      29.93R
SYLVANIA       CLOUDY    60  57  90 CALM      29.93R
CLAXTON        FAIR      61  57  88 CALM      29.93R

...CSRA...CENTRAL AND FAR SOUTHEAST GEORGIA...

CITY           SKY/WX    TMP DP  RH WIND       PRES   REMARKS
THOMSON        CLOUDY    60  58  91 CALM      29.95F
AUGUSTA-BUSH   LGT RAIN  57  54  89 CALM      29.92R
AUGUSTA-DANIEL LGT RAIN  59  53  80 SE6       29.92R
SWAINSBORO     NOT AVBL
VIDALIA        CLOUDY    61  57  88 CALM      29.92R
EASTMAN        LGT RAIN  62  62  99 SE5       29.91F
HAZLEHURST     FAIR      64  60  87 S5        29.91R
ALMA           MOCLDY    62  58  86 SE5       29.90R
WAYCROSS       CLOUDY    66  63  91 S3        29.91R
JESUP          PTSUNNY   61  59  94 CALM      29.92R
BAXLEY         CLOUDY    63  59  88 CALM      29.90S
BRUNSWICK      PTCLDY    70  63  78 S5        29.92R
SAINT SIMONS   CLEAR     71  65  81 S7        29.90S

$$

SCZ027-028-034-036>038-045-046-048>050-GAZ119-141-251200-
...LAKE AND SUPPLEMENTAL COASTAL OBSERVATIONS...

STATION/POSITION TIME  TEMP    WIND        PRES    WAVE   SWELL
                       AIR SEA DIR/SP/G            HT/PER HT/PER/DIR
                 (UTC) (F)     (DEG/KT/KT) (MB)    (FT/S) (FT/S/D)
UPR LAKE MARION  NOT AVBL
WINYAH BAY       0945   59     260/  2     1013.0
LAKE MURRAY      1000   60     220/ 10/ 13 1012.9S
ACE BASIN NERRS  NOT AVBL
FORT PULASKI     1000   68 70  140/  3/  5 1013.5R
SAPELO ISLAND    1000   69     150/  6     1012.0S

$$

ANZ835-935-AMZ111-154-330-350-352-354-370-450-454-472-251200-
...C-MAN AND BUOY OBSERVATIONS...

STATION/POSITION TIME  TEMP    WIND        PRES    WAVE   SWELL
                       AIR SEA DIR/SP/G            HT/PER HT/PER/DIR
                 (UTC) (F)     (DEG/KT/KT) (MB)    (FT/S) (FT/S/D)
BUOY 41004       1050   71 71  170/ 10/ 12 1014.1R   3/ 9   2/ 9
BUOY 41008       1050   70 69  150/  8/  8 1013.4R   2/ 9   2/ 70/ 9
FOLLY BEACH CMAN 1100   69     160/  7/  7 1013.8F
CAPERS NEARSHORE 1008   69     190/  8/ 10   N/A
FRIPP NEARSHORE  1000   70     160/  8/ 10 1013.3R


STATION/POSITION TIME  TEMP    WIND        PRES    WAVE   SWELL
                       AIR SEA DIR/SP/G            HT/PER HT/PER/DIR
                 (UTC) (F)     (DEG/KT/KT) (MB)    (FT/S) (FT/S/D)
5E ST. MARYS GA  1021      70                N/A     2/14   2/100/14
FRYING PAN BUOY  1050   69 71  210/ 12/ 16 1014.9R   3/ 9   2/ 90/ 9
BUOY 41025       1050   65 70  260/ 16/ 17 1013.4R   4/ 8   3/ 70/ 8
CAPE LOOKOUT NC  1100   62     240/  5/  6 1013.6S
BUOY 41002       1050   63 70  200/  4/  6 1016.6R   7/ 8   7/ 10/ 8
BUOY 41010       1020   75 78  120/ 10/ 12 1013.9F
ST AUGUSTINE FL  1100   71 68  180/  7/  8 1014.0R


$$



USA.gov is the U.S. government's official web portal to all federal, state and local government web resources and services.